Date String (YYYY-MM-DD hh:mm:ss) UTC,Instrument flags,Ambient pressure (hPa),Sample flow (lpm),Bypass flow (lpm),Sample temperature (°C),Ambient temperature (°C),ASC tube jacket temperature (°C),LED temperature (°C),Box temperature (°C),Sample RH (%),Span deviation,Mass concentration (μg/m³),Mass concentration (μg/m³),Mass concentration (μg/m³)
DateTimeUTC,F1_M11,P_M11,Q1_M11,Q2_M11,T1_M11,T2_M11,T3_M11,T4_M11,T5_M11,U1_M11,ZSPAN_M11,X0_M11,X2_M11,X1_M11
2022-08-12 05:00:00,,0829.7,4.99,0.00,29.3,28.0,00.0,38.1,31.3,26.3,0000.0,0017.17,0006.76,0005.62
2022-08-12 05:01:00,,0829.8,5.00,0.00,29.3,28.1,00.0,38.1,31.3,26.3,0000.0,0016.64,0006.76,0005.63
2022-08-12 05:02:00,,0829.8,5.00,0.00,29.4,28.2,00.0,38.1,31.4,26.4,0000.0,0016.01,0006.77,0005.63
2022-08-12 05:03:00,,0829.8,5.00,0.00,29.4,28.4,00.0,38.1,31.4,26.5,0000.0,0015.51,0006.76,0005.63
2022-08-12 05:04:00,,0829.8,5.00,0.00,29.5,28.5,00.0,38.2,31.5,26.6,0000.0,0015.22,0006.78,0005.65
2022-08-12 05:05:00,,0829.8,4.99,0.00,29.5,28.4,00.0,38.2,31.5,26.7,0000.0,0015.04,0006.81,0005.67
2022-08-12 05:06:00,,0829.8,5.01,0.00,29.5,27.8,00.0,38.1,31.2,26.9,0000.0,0014.37,0006.80,0005.68
2022-08-12 05:07:00,,0829.8,5.00,0.00,29.4,27.0,00.0,38.1,31.1,27.1,0000.0,0014.34,0006.83,0005.70
2022-08-12 05:08:00,,0829.8,5.00,0.00,29.3,26.8,00.0,38.1,31.0,27.3,0000.0,0014.10,0006.84,0005.71
2022-08-12 05:09:00,,0829.8,4.99,0.00,29.2,26.9,00.0,38.1,30.8,27.6,0000.0,0013.89,0006.87,0005.72
2022-08-12 05:10:00,,0829.7,5.00,0.00,29.2,27.0,00.0,38.0,30.9,27.8,0000.0,0014.17,0006.95,0005.73
2022-08-12 05:11:00,,0829.7,5.01,0.00,29.2,27.2,00.0,38.0,31.0,27.9,0000.0,0014.64,0007.05,0005.74
2022-08-12 05:12:00,,0829.7,4.99,0.00,29.2,27.4,00.0,38.0,31.1,27.9,0000.0,0014.83,0007.16,0005.73
2022-08-12 05:13:00,,0829.8,5.01,0.00,29.2,27.6,00.0,38.0,31.1,27.8,0000.0,0016.05,0007.26,0005.74
2022-08-12 05:14:00,,0829.8,5.00,0.00,29.2,27.8,00.0,38.0,31.2,27.7,0000.0,0016.33,0007.32,0005.74
2022-08-12 05:15:00,,0829.8,4.99,0.00,29.3,27.9,00.0,38.1,31.2,27.8,0000.0,0018.10,0007.32,0005.73
2022-08-12 05:16:00,,0829.8,5.00,0.00,29.3,28.1,00.0,38.1,31.3,27.6,0000.0,0018.77,0007.34,0005.72
2022-08-12 05:17:00,,0829.8,5.00,0.00,29.3,28.2,00.0,38.1,31.3,27.4,0000.0,0019.01,0007.38,0005.71
2022-08-12 05:18:00,,0829.9,5.00,0.00,29.4,28.3,00.0,38.1,31.4,26.9,0000.0,0019.06,0007.34,0005.69
2022-08-12 05:19:00,,0830.0,5.00,0.00,29.4,28.4,00.0,38.1,31.4,26.9,0000.0,0018.71,0007.32,0005.68
2022-08-12 05:20:00,,0829.9,5.00,0.00,29.5,28.5,00.0,38.2,31.5,26.7,0000.0,0018.62,0007.26,0005.66
2022-08-12 05:21:00,,0829.9,4.99,0.00,29.5,28.6,00.0,38.2,31.5,26.1,0000.0,0018.82,0007.14,0005.63
2022-08-12 05:22:00,,0829.9,5.01,0.00,29.5,28.6,00.0,38.2,31.5,25.5,0000.0,0018.23,0007.02,0005.59
2022-08-12 05:23:00,,0830.0,5.00,0.00,29.5,28.0,00.0,38.2,31.4,25.9,0000.0,0018.18,0006.90,0005.56
2022-08-12 05:24:00,,0830.0,5.00,0.00,29.4,27.2,00.0,38.1,31.1,25.8,0000.0,0016.84,0006.76,0005.53
2022-08-12 05:25:00,,0829.9,5.00,0.00,29.4,26.9,00.0,38.1,31.1,26.0,0000.0,0016.61,0006.70,0005.51
2022-08-12 05:26:00,,0829.9,4.99,0.00,29.3,27.0,00.0,38.1,31.0,26.1,0000.0,0014.87,0006.69,0005.51
2022-08-12 05:27:00,,0829.9,5.01,0.00,29.3,27.1,00.0,38.1,31.0,26.2,0000.0,0014.61,0006.64,0005.49
2022-08-12 05:28:00,,0829.9,4.99,0.00,29.3,27.3,00.0,38.1,31.1,26.3,0000.0,0014.49,0006.60,0005.48
2022-08-12 05:29:00,,0829.9,5.01,0.00,29.3,27.5,00.0,38.1,31.1,26.3,0000.0,0014.22,0006.56,0005.47
2022-08-12 05:30:00,,0829.8,4.99,0.00,29.3,27.6,00.0,38.1,31.2,26.4,0000.0,0014.10,0006.53,0005.46
2022-08-12 05:31:00,,0830.0,5.00,0.00,29.3,27.8,00.0,38.1,31.2,26.2,0000.0,0013.48,0006.47,0005.44
2022-08-12 05:32:00,,0829.9,4.99,0.00,29.3,28.0,00.0,38.1,31.3,26.3,0000.0,0013.00,0006.52,0005.44
2022-08-12 05:33:00,,0829.9,5.00,0.00,29.3,28.1,00.0,38.1,31.3,26.1,0000.0,0013.43,0006.52,0005.44
2022-08-12 05:34:00,,0829.9,5.00,0.00,29.4,28.2,00.0,38.1,31.4,26.2,0000.0,0013.46,0006.54,0005.44
2022-08-12 05:35:00,,0829.9,5.01,0.00,29.4,28.3,00.0,38.1,31.4,26.3,0000.0,0013.56,0006.57,0005.41
2022-08-12 05:36:00,,0829.9,5.00,0.00,29.4,28.4,00.0,38.2,31.4,26.3,0000.0,0013.36,0006.52,0005.37
2022-08-12 05:37:00,,0829.9,5.00,0.00,29.5,28.5,00.0,38.2,31.5,26.3,0000.0,0013.90,0006.50,0005.33
2022-08-12 05:38:00,,0829.9,5.00,0.00,29.5,28.6,00.0,38.2,31.5,26.2,0000.0,0013.47,0006.48,0005.30
2022-08-12 05:39:00,,0830.0,5.00,0.00,29.5,28.4,00.0,38.2,31.5,26.3,0000.0,0013.03,0006.42,0005.27
2022-08-12 05:40:00,,0829.9,5.01,0.00,29.5,27.7,00.0,38.2,31.3,26.4,0000.0,0013.30,0006.40,0005.24
2022-08-12 05:41:00,,0830.1,5.00,0.00,29.5,27.5,00.0,38.2,31.3,26.3,0000.0,0013.41,0006.35,0005.20
2022-08-12 05:42:00,,0830.0,4.99,0.00,29.4,27.5,00.0,38.2,31.2,26.4,0000.0,0013.65,0006.37,0005.17
2022-08-12 05:43:00,,0829.9,5.00,0.00,29.4,27.6,00.0,38.2,31.2,26.5,0000.0,0013.79,0006.31,0005.14
2022-08-12 05:44:00,,0829.9,5.00,0.00,29.4,27.8,00.0,38.2,31.3,26.5,0000.0,0013.54,0006.30,0005.12
2022-08-12 05:45:00,,0829.9,5.00,0.00,29.4,27.9,00.0,38.2,31.3,26.5,0000.0,0013.08,0006.28,0005.09
2022-08-12 05:46:00,,0830.0,4.99,0.00,29.4,28.0,00.0,38.2,31.4,26.6,0000.0,0013.29,0006.26,0005.09
2022-08-12 05:47:00,,0830.0,5.00,0.00,29.5,28.2,00.0,38.2,31.4,26.7,0000.0,0013.72,0006.24,0005.07
2022-08-12 05:48:00,,0830.0,5.01,0.00,29.5,28.3,00.0,38.2,31.5,26.6,0000.0,0013.49,0006.22,0005.06
2022-08-12 05:49:00,,0830.0,5.00,0.00,29.5,28.4,00.0,38.3,31.5,26.5,0000.0,0013.72,0006.25,0005.05
2022-08-12 05:50:00,,0829.9,5.00,0.00,29.6,28.5,00.0,38.3,31.6,26.4,0000.0,0013.90,0006.27,0005.04
2022-08-12 05:51:00,,0830.0,5.00,0.00,29.6,28.6,00.0,38.3,31.6,26.4,0000.0,0014.11,0006.26,0005.03
2022-08-12 05:52:00,,0829.9,4.99,0.00,29.6,28.2,00.0,38.3,31.5,26.4,0000.0,0014.31,0006.25,0005.03
2022-08-12 05:53:00,,0829.9,5.00,0.00,29.5,27.4,00.0,38.2,31.3,26.5,0000.0,0014.42,0006.24,0005.03
2022-08-12 05:54:00,,0829.9,5.00,0.00,29.5,27.1,00.0,38.2,31.2,26.6,0000.0,0014.30,0006.26,0005.04
2022-08-12 05:55:00,,0829.9,4.99,0.00,29.4,27.0,00.0,38.2,31.1,26.7,0000.0,0014.53,0006.24,0005.02
2022-08-12 05:56:00,,0829.8,5.00,0.00,29.3,27.1,00.0,38.2,31.1,26.8,0000.0,0015.32,0006.22,0004.99
2022-08-12 05:57:00,,0830.1,4.99,0.00,29.3,27.3,00.0,38.1,31.1,26.8,0000.0,0015.74,0006.21,0004.97
2022-08-12 05:58:00,,0829.9,5.01,0.00,29.3,27.4,00.0,38.1,31.1,26.8,0000.0,0016.10,0006.21,0004.95
2022-08-12 05:59:00,,0829.9,5.00,0.00,29.3,27.6,00.0,38.1,31.2,26.8,0000.0,0016.18,0006.20,0004.92
